Location: Brachbach
(49.1847°N, 9.7240°E)
Time: 14:18:29
(UTC+00:00)

CZ-2C R/B - Pass Details

Date: 05 August 2024
Orbit: 782 x 869 km, 98.3° (Epoch: 15 September)

Event Time Altitude Azimuth Distance (km) Brightness Sun altitude
Exits shadow 00:44:04 24° 142° (SE) 1,712 4.0 -21.8°
Maximum altitude 00:47:24 61° 70° (ENE) 971 3.1 -21.6°
Drops below altitude 10° 00:52:49 10° 352° (N) 2,480 6.0 -21.3°
Sets 00:55:12 0° 349° (N) 3,407 6.8 -21.1°
